Total_Precipitation_Accumulation
0.43 0.41 0.39 0.34 0.32 0.26 0.23 0.22 0.18 0.12 0.07 0.05 0.04 0.04 0.03 0.03 0.03 0.03 0.02 0.02 0.02 0.02 0.02 0.02 0.02 0.02 0.01 0.00 0.00 0.00 0.00 0.00 0.00 0.00 0.00 0.00 0.00 0.00 0.00 0.00 0.00 0.00 0.00 0.00 0.00 0.03 0.02
0.41 0.43 0.44 0.41 0.39 0.36 0.31 0.25 0.17 0.12 0.08 0.06 0.04 0.04 0.02 0.03 0.03 0.03 0.03 0.02 0.02 0.02 0.02 0.02 0.02 0.03 0.00 0.00 0.00 0.00 0.00 0.00 0.00 0.00 0.00 0.00 0.00 0.00 0.00 0.00 0.00 0.00 0.00 0.00 0.00 0.02 0.02
0.68 0.51 0.38 0.32 0.29 0.27 0.24 0.23 0.22 0.24 0.21 0.15 0.11 0.06 0.04 0.03 0.03 0.02 0.02 0.02 0.02 0.02 0.03 0.02 0.02 0.02 0.00 0.00 0.00 0.00 0.00 0.00 0.00 0.00 0.00 0.00 0.00 0.00 0.00 0.00 0.00 0.00 0.00 0.00 0.00 0.01 0.02
0.83 0.71 0.67 0.71 0.71 0.61 0.48 0.42 0.36 0.29 0.24 0.18 0.12 0.07 0.06 0.03 0.03 0.02 0.02 0.02 0.02 0.02 0.03 0.03 0.03 0.02 0.00 0.00 0.00 0.00 0.00 0.00 0.00 0.00 0.00 0.00 0.00 0.00 0.00 0.00 0.00 0.00 0.00 0.00 0.02 0.00 0.02
0.61 0.52 0.47 0.46 0.45 0.50 0.57 0.56 0.51 0.42 0.37 0.33 0.30 0.25 0.17 0.08 0.06 0.05 0.03 0.02 0.02 0.03 0.03 0.03 0.01 0.01 0.00 0.00 0.00 0.00 0.00 0.02 0.01 0.00 0.00 0.00 0.00 0.00 0.00 0.00 0.00 0.00 0.00 0.00 0.00 0.00 0.01
0.43 0.42 0.37 0.34 0.31 0.29 0.27 0.26 0.28 0.33 0.41 0.36 0.39 0.43 0.33 0.20 0.14 0.07 0.03 0.02 0.02 0.02 0.01 0.00 0.01 0.01 0.00 0.00 0.00 0.00 0.00 0.01 0.02 0.00 0.00 0.00 0.00 0.00 0.00 0.00 0.00 0.00 0.00 0.00 0.00 0.00 0.00
0.41 0.37 0.35 0.35 0.32 0.27 0.22 0.20 0.19 0.21 0.26 0.27 0.29 0.31 0.32 0.27 0.20 0.13 0.04 0.01 0.01 0.00 0.00 0.00 0.00 0.00 0.00 0.00 0.00 0.00 0.00 0.00 0.00 0.00 0.00 0.01 0.00 0.01 0.00 0.00 0.01 0.01 0.01 0.03 0.01 0.00 0.00
0.35 0.35 0.32 0.31 0.23 0.20 0.19 0.22 0.22 0.20 0.17 0.14 0.10 0.12 0.14 0.19 0.17 0.07 0.02 0.00 0.00 0.03 0.05 0.00 0.00 0.00 0.00 0.00 0.00 0.00 0.00 0.00 0.01 0.05 0.02 0.04 0.04 0.01 0.00 0.01 0.03 0.05 0.09 0.04 0.01 0.01 0.06
0.47 0.38 0.35 0.35 0.34 0.28 0.23 0.23 0.21 0.18 0.17 0.15 0.14 0.13 0.13 0.11 0.10 0.04 0.01 0.01 0.00 0.00 0.02 0.00 0.00 0.00 0.00 0.00 0.01 0.00 0.00 0.00 0.02 0.06 0.06 0.07 0.03 0.00 0.01 0.02 0.02 0.02 0.02 0.00 0.01 0.05 0.17
0.55 0.47 0.43 0.40 0.36 0.34 0.32 0.33 0.32 0.25 0.19 0.13 0.12 0.17 0.20 0.16 0.08 0.01 0.01 0.00 0.00 0.00 0.07 0.00 0.00 0.03 0.04 0.01 0.01 0.00 0.00 0.00 0.01 0.01 0.02 0.04 0.00 0.01 0.04 0.04 0.04 0.06 0.02 0.01 0.02 0.17 0.20
0.48 0.45 0.45 0.42 0.38 0.34 0.33 0.34 0.32 0.28 0.23 0.19 0.18 0.16 0.20 0.23 0.07 0.03 0.01 0.00 0.00 0.08 0.15 0.00 0.01 0.04 0.01 0.01 0.01 0.01 0.00 0.01 0.02 0.01 0.04 0.06 0.01 0.02 0.03 0.02 0.02 0.02 0.01 0.04 0.09 0.12 0.17
0.53 0.42 0.43 0.44 0.45 0.43 0.38 0.38 0.37 0.26 0.22 0.15 0.17 0.23 0.38 0.21 0.07 0.03 0.01 0.03 0.14 0.34 0.18 0.00 0.01 0.02 0.02 0.00 0.00 0.00 0.00 0.01 0.01 0.02 0.02 0.02 0.02 0.07 0.05 0.01 0.02 0.06 0.06 0.20 0.22 0.17 0.24
0.56 0.50 0.46 0.46 0.45 0.44 0.44 0.39 0.30 0.23 0.25 0.26 0.27 0.31 0.34 0.13 0.11 0.04 0.05 0.23 0.48 0.33 0.02 0.00 0.01 0.00 0.02 0.05 0.06 0.08 0.08 0.12 0.10 0.06 0.08 0.07 0.08 0.02 0.01 0.05 0.03 0.06 0.16 0.37 0.52 0.43 0.16
0.70 0.58 0.53 0.51 0.45 0.43 0.39 0.35 0.32 0.30 0.29 0.33 0.42 0.47 0.34 0.15 0.11 0.10 0.29 0.60 0.47 0.06 0.01 0.00 0.00 0.01 0.13 0.20 0.17 0.18 0.09 0.08 0.03 0.02 0.08 0.16 0.24 0.05 0.01 0.02 0.03 0.06 0.15 0.32 0.70 0.53 0.27
0.78 0.69 0.61 0.53 0.46 0.43 0.39 0.37 0.35 0.36 0.41 0.50 0.75 0.54 0.42 0.18 0.16 0.32 0.94 0.90 0.13 0.02 0.03 0.02 0.03 0.12 0.25 0.15 0.23 0.19 0.06 0.08 0.02 0.02 0.27 0.36 0.43 0.03 0.02 0.03 0.03 0.03 0.08 0.11 0.53 0.52 0.72
0.98 0.91 0.79 0.68 0.60 0.53 0.52 0.49 0.46 0.50 0.60 0.73 0.70 0.67 0.31 0.17 0.36 0.73 1.34 0.66 0.07 0.01 0.01 0.05 0.34 0.30 0.33 0.16 0.21 0.15 0.13 0.07 0.04 0.01 0.12 0.39 0.86 0.07 0.06 0.07 0.04 0.03 0.09 0.43 0.86 1.13 0.81
1.14 1.02 0.88 0.72 0.65 0.60 0.56 0.57 0.62 0.62 0.84 0.89 1.03 1.13 0.44 0.33 1.10 1.72 1.22 0.22 0.01 0.00 0.02 0.13 0.39 0.35 0.33 0.43 0.35 0.47 0.46 0.22 0.05 0.12 0.13 0.25 0.88 0.19 0.04 0.14 0.03 0.02 0.13 0.39 0.62 0.37 0.98
1.39 1.18 1.06 0.86 0.76 0.73 0.68 0.70 0.79 0.92 1.09 1.55 1.93 1.49 0.62 0.93 1.78 1.36 0.52 0.10 0.03 0.01 0.00 0.04 0.23 0.43 0.52 0.56 0.52 1.07 0.61 0.33 0.04 0.17 0.23 0.07 0.31 0.11 0.04 0.03 0.03 0.03 0.05 0.20 0.77 0.76 1.08
1.69 1.47 1.24 1.09 0.95 0.94 0.83 0.89 0.99 1.19 1.36 1.78 2.51 1.75 1.47 1.27 1.41 0.64 0.23 0.09 0.05 0.03 0.02 0.02 0.10 0.44 0.63 0.67 0.81 0.73 0.67 0.20 0.01 0.02 0.07 0.14 0.25 0.28 0.27 0.19 0.38 0.21 0.13 0.21 0.46 0.90 1.52
1.75 1.61 1.38 1.28 1.22 1.16 1.03 1.03 1.19 1.41 1.66 2.07 2.94 2.30 2.97 2.59 0.88 0.32 0.31 0.23 0.16 0.03 0.12 0.09 0.15 0.45 0.53 0.51 0.40 0.55 0.61 0.18 0.06 0.01 0.01 0.10 0.24 0.43 0.60 0.65 0.77 0.62 0.53 0.42 0.91 1.45 1.06
1.99 1.73 1.49 1.38 1.39 1.35 1.27 1.16 1.25 1.69 2.11 3.15 3.83 1.61 0.98 1.50 0.79 0.37 0.42 0.56 0.46 0.36 0.19 0.13 0.22 0.23 0.25 0.42 0.26 0.24 0.35 0.25 0.16 0.06 0.09 0.17 0.56 0.51 0.48 0.62 0.47 0.68 1.14 1.18 0.90 0.76 0.85
1.96 1.79 1.62 1.48 1.41 1.55 1.43 1.35 1.28 1.67 3.00 4.89 3.93 0.82 0.33 0.22 0.20 0.37 0.50 0.57 0.35 0.17 0.16 0.15 0.09 0.08 0.07 0.14 0.20 0.13 0.17 0.32 0.31 0.15 0.26 0.23 0.70 0.84 0.66 0.61 0.37 0.55 0.92 0.65 0.63 0.97 0.87
2.13 1.93 1.89 1.71 1.62 1.67 1.83 1.65 1.53 1.71 3.75 6.74 3.48 0.55 0.54 0.36 0.20 0.48 0.45 0.26 0.23 0.19 0.21 0.10 0.05 0.07 0.06 0.03 0.08 0.10 0.10 0.13 0.13 0.16 0.21 0.25 0.42 0.50 0.40 0.26 0.18 0.54 0.82 0.50 0.30 0.27 0.26
2.07 1.98 1.86 2.13 1.83 1.78 1.77 1.87 1.97 2.03 2.87 3.83 2.45 0.71 1.03 0.90 0.36 0.15 0.11 0.16 0.18 0.22 0.21 0.14 0.12 0.16 0.09 0.05 0.11 0.28 0.23 0.12 0.12 0.11 0.20 0.29 0.26 0.43 0.33 0.34 0.67 0.67 0.28 0.15 0.04 0.06 0.07
1.82 1.89 1.58 1.81 2.09 1.86 1.65 1.70 2.15 2.18 2.02 2.15 1.74 1.27 1.13 0.84 0.22 0.17 0.16 0.15 0.15 0.16 0.23 0.16 0.15 0.14 0.15 0.16 0.36 0.35 0.31 0.32 0.14 0.18 0.20 0.20 0.36 0.64 0.64 0.39 0.45 0.26 0.09 0.05 0.10 0.12 0.08
1.77 1.72 1.45 1.57 1.69 2.03 1.81 1.66 1.93 2.24 2.08 2.12 1.55 1.68 1.98 1.52 0.50 0.09 0.12 0.13 0.21 0.29 0.26 0.15 0.25 0.18 0.18 0.31 0.44 0.43 0.30 0.25 0.22 0.23 0.20 0.35 0.39 0.70 0.80 0.59 0.43 0.20 0.06 0.03 0.04 0.19 0.08
2.27 1.80 1.47 1.49 1.44 1.79 1.97 1.77 1.52 1.92 2.24 2.34 1.93 1.53 2.79 2.54 0.64 0.28 0.29 0.20 0.16 0.27 0.35 0.26 0.37 0.38 0.31 0.51 0.48 0.26 0.24 0.12 0.28 0.26 0.27 0.32 0.52 0.68 0.72 0.65 0.21 0.05 0.09 0.09 0.30 0.44 0.11
2.32 2.16 1.44 1.30 1.29 1.40 1.63 1.73 1.59 1.67 2.16 2.78 2.24 1.33 2.01 2.44 0.93 0.49 0.38 0.37 0.20 0.26 0.43 0.42 0.69 0.79 0.71 0.57 0.30 0.17 0.14 0.11 0.30 0.30 0.24 0.23 0.38 0.42 0.58 0.70 0.37 0.12 0.27 0.38 0.40 0.19 0.09
1.84 2.22 1.38 1.20 1.22 1.29 1.20 1.42 1.75 1.70 2.10 2.85 2.81 1.46 1.61 2.33 1.49 0.65 0.36 0.33 0.21 0.19 0.40 0.54 0.68 0.52 0.45 0.54 0.27 0.24 0.21 0.17 0.18 0.54 0.29 0.54 0.29 0.30 0.28 0.34 0.37 0.33 0.44 0.36 0.19 0.23 0.23